Powrót do katalogu

FENGYUN 1C DEB

AktywnyPO
NORAD 37433·DEBRIS·🇨🇳 China

Wystrzelony May 10, 1999 z Taiyuan Satellite Launch Center

Loading…

Następne Przeloty (najbliższe 24 godziny)

TLE

Starzejące sięSource: Space-Track

Epoka: Sep 4, 2026, 07:42 UTC

1 37433U 99025EHB 26247.32102672  .00003782  00000-0  17940-2 0  9992
2 37433  98.0897  65.7986 0206536 168.3235 192.2836 14.09453095274738

Śledź FENGYUN 1C DEB w czasie rzeczywistym z AllMySat

Download on the App Store